Location: Czu?�w
(50.1404°N, 18.9919°E)
Time: 03:27:26
(UTC+00:00)

Cosmos 1455 - Pass Details

Date: 27 October 2020
Orbit: 500 x 521 km, 82.5° (Epoch: 24 November)

Event Time Altitude Azimuth Distance (km) Brightness Sun altitude
Rises 18:26:28 0° 216° (SW) 2,601 6.0 -28.9°
Reaches altitude 10° 18:28:48 10° 228° (SW) 1,726 5.2 -29.2°
Enters shadow 18:31:05 24° 262° (W) 1,082 4.3 -29.6°
